Time,TemperatureF,DewpointF,PressureIn,WindDirection,WindDirectionDegrees,WindSpeedMPH,WindSpeedGustMPH,Humidity,HourlyPrecipIn,Conditions,Clouds,dailyrainin,SoftwareType,DateUTC
2013-05-10 00:25:00,55.7,55.1,29.81,SE,132,0.0,0.0,98,0.00,,,0.58,Wunderground v.1.15,2013-05-10 04:25:00,
2013-05-10 00:36:00,55.7,55.1,29.82,SE,132,0.0,2.0,98,0.00,,,0.58,Wunderground v.1.15,2013-05-10 04:36:00,
2013-05-10 00:46:00,55.0,54.4,29.82,SE,132,0.0,2.0,98,0.00,,,0.58,Wunderground v.1.15,2013-05-10 04:46:00,
2013-05-10 01:06:00,55.3,54.7,29.82,SE,132,0.0,2.0,98,0.00,,,0.00,Wunderground v.1.15,2013-05-10 05:06:00,
2013-05-10 01:16:00,55.3,54.7,29.81,SE,132,0.0,2.0,98,0.00,,,0.00,Wunderground v.1.15,2013-05-10 05:16:00,
2013-05-10 01:36:00,55.0,54.7,29.81,SE,132,0.0,0.0,99,0.00,,,0.00,Wunderground v.1.15,2013-05-10 05:36:00,
2013-05-10 01:46:00,55.1,54.8,29.81,SE,132,0.0,0.0,99,0.00,,,0.00,Wunderground v.1.15,2013-05-10 05:46:00,
2013-05-10 02:15:00,54.5,53.9,29.81,SE,132,0.0,0.0,98,0.00,,,0.00,Wunderground v.1.15,2013-05-10 06:15:00,
2013-05-10 02:26:00,54.2,53.6,29.81,SE,132,0.0,0.0,98,0.00,,,0.00,Wunderground v.1.15,2013-05-10 06:26:00,
2013-05-10 02:45:00,53.2,52.9,29.81,SE,132,0.0,3.0,99,0.00,,,0.00,Wunderground v.1.15,2013-05-10 06:45:00,
2013-05-10 02:56:00,53.3,53.0,29.81,SE,132,0.0,3.0,99,0.00,,,0.00,Wunderground v.1.15,2013-05-10 06:56:00,
2013-05-10 03:35:00,53.6,53.3,29.81,SE,132,0.0,0.0,99,0.00,,,0.00,Wunderground v.1.15,2013-05-10 07:35:00,
2013-05-10 03:46:00,53.6,53.3,29.80,SE,132,0.0,0.0,99,0.00,,,0.00,Wunderground v.1.15,2013-05-10 07:46:00,
2013-05-10 03:56:00,53.5,53.2,29.80,SE,132,0.0,0.0,99,0.00,,,0.00,Wunderground v.1.15,2013-05-10 07:56:00,
2013-05-10 04:16:00,53.1,52.8,29.82,SE,132,1.0,1.0,99,0.00,,,0.00,Wunderground v.1.15,2013-05-10 08:16:00,
2013-05-10 04:36:00,53.2,52.9,29.82,SE,132,1.0,1.0,99,0.00,,,0.00,Wunderground v.1.15,2013-05-10 08:36:00,
2013-05-10 04:46:00,53.5,53.2,29.82,SE,132,0.0,3.0,99,0.00,,,0.00,Wunderground v.1.15,2013-05-10 08:46:00,
2013-05-10 04:56:00,53.5,53.2,29.82,SE,132,0.0,3.0,99,0.00,,,0.00,Wunderground v.1.15,2013-05-10 08:56:00,
2013-05-10 05:05:00,53.3,53.0,29.83,SE,132,0.0,3.0,99,0.00,,,0.00,Wunderground v.1.15,2013-05-10 09:05:00,
2013-05-10 05:15:00,53.3,53.0,29.83,SE,132,0.0,3.0,99,0.00,,,0.00,Wunderground v.1.15,2013-05-10 09:15:00,
2013-05-10 05:26:00,53.3,53.0,29.83,SE,132,0.0,3.0,99,0.00,,,0.00,Wunderground v.1.15,2013-05-10 09:26:00,
2013-05-10 06:06:00,53.1,52.8,29.84,SE,132,0.0,0.0,99,0.00,,,0.00,Wunderground v.1.15,2013-05-10 10:06:00,
2013-05-10 06:56:00,53.3,53.0,29.84,SE,132,1.0,2.0,99,0.00,,,0.00,Wunderground v.1.15,2013-05-10 10:56:00,
2013-05-10 07:36:00,55.4,55.1,29.84,SE,132,1.0,1.0,99,0.00,,,0.00,Wunderground v.1.15,2013-05-10 11:36:00,
2013-05-10 07:46:00,55.7,55.4,29.84,SE,132,0.0,4.0,99,0.00,,,0.00,Wunderground v.1.15,2013-05-10 11:46:00,
2013-05-10 08:05:00,57.3,57.0,29.85,SE,132,0.0,3.0,99,0.00,,,0.00,Wunderground v.1.15,2013-05-10 12:05:00,
2013-05-10 08:15:00,58.1,57.8,29.85,SE,132,1.0,3.0,99,0.00,,,0.00,Wunderground v.1.15,2013-05-10 12:15:00,
2013-05-10 08:26:00,59.0,58.4,29.85,SE,132,0.0,3.0,98,0.00,,,0.00,Wunderground v.1.15,2013-05-10 12:26:00,
2013-05-10 09:36:00,65.0,56.9,29.84,SE,144,2.0,5.0,75,0.00,,,0.00,Wunderground v.1.15,2013-05-10 13:36:00,
2013-05-10 09:46:00,66.8,57.5,29.84,SSE,150,0.0,5.0,72,0.00,,,0.00,Wunderground v.1.15,2013-05-10 13:46:00,
2013-05-10 09:56:00,65.3,54.9,29.84,NW,314,3.0,5.0,69,0.00,,,0.00,Wunderground v.1.15,2013-05-10 13:56:00,
2013-05-10 10:05:00,66.3,56.2,29.84,North,11,2.0,9.0,70,0.00,,,0.00,Wunderground v.1.15,2013-05-10 14:05:00,
2013-05-10 10:15:00,68.3,56.5,29.84,East,81,1.0,1.0,66,0.00,,,0.00,Wunderground v.1.15,2013-05-10 14:15:00,
2013-05-10 10:26:00,68.6,56.4,29.84,SE,130,1.0,9.0,65,0.00,,,0.00,Wunderground v.1.15,2013-05-10 14:26:00,
2013-05-10 10:55:00,70.1,54.6,29.83,WNW,296,1.0,12.0,58,0.00,,,0.00,Wunderground v.1.15,2013-05-10 14:55:00,
2013-05-10 11:05:00,69.8,55.3,29.83,WNW,285,1.0,6.0,60,0.00,,,0.00,Wunderground v.1.15,2013-05-10 15:05:00,
2013-05-10 11:16:00,69.6,54.6,29.83,WNW,292,1.0,1.0,59,0.00,,,0.00,Wunderground v.1.15,2013-05-10 15:16:00,
2013-05-10 11:26:00,70.3,53.9,29.83,SW,225,1.0,1.0,56,0.00,,,0.00,Wunderground v.1.15,2013-05-10 15:26:00,
2013-05-10 11:56:00,68.8,55.7,29.83,South,180,1.0,1.0,63,0.00,,,0.00,Wunderground v.1.15,2013-05-10 15:56:00,
2013-05-10 12:05:00,67.4,58.1,29.83,NW,314,1.0,10.0,72,0.00,,,0.01,Wunderground v.1.15,2013-05-10 16:05:00,
2013-05-10 12:16:00,64.8,57.4,29.84,NW,323,1.0,10.0,77,0.05,,,0.02,Wunderground v.1.15,2013-05-10 16:16:00,
2013-05-10 12:26:00,63.5,57.6,29.84,ENE,57,1.0,1.0,81,0.04,,,0.02,Wunderground v.1.15,2013-05-10 16:26:00,
2013-05-10 13:06:00,69.6,59.4,29.83,East,90,1.0,7.0,70,0.00,,,0.02,Wunderground v.1.15,2013-05-10 17:06:00,
2013-05-10 13:16:00,70.9,58.1,29.83,ESE,108,1.0,7.0,64,0.00,,,0.02,Wunderground v.1.15,2013-05-10 17:16:00,
2013-05-10 13:26:00,70.1,55.1,29.83,East,94,1.0,1.0,59,0.00,,,0.02,Wunderground v.1.15,2013-05-10 17:26:00,
2013-05-10 14:06:00,66.8,55.9,29.83,ESE,119,5.0,5.0,68,0.00,,,0.02,Wunderground v.1.15,2013-05-10 18:06:00,
2013-05-10 14:16:00,67.1,57.0,29.83,South,178,3.0,12.0,70,0.00,,,0.02,Wunderground v.1.15,2013-05-10 18:16:00,
2013-05-10 14:26:00,67.8,55.6,29.83,SSE,150,1.0,12.0,65,0.00,,,0.02,Wunderground v.1.15,2013-05-10 18:26:00,
2013-05-10 14:35:00,68.6,55.9,29.83,SSE,155,1.0,12.0,64,0.00,,,0.02,Wunderground v.1.15,2013-05-10 18:35:00,
2013-05-10 14:45:00,68.9,56.2,29.83,SSE,161,1.0,1.0,64,0.00,,,0.02,Wunderground v.1.15,2013-05-10 18:45:00,
2013-05-10 14:56:00,68.1,56.7,29.83,SE,136,1.0,1.0,67,0.00,,,0.02,Wunderground v.1.15,2013-05-10 18:56:00,
2013-05-10 15:06:00,68.1,56.7,29.83,SE,136,0.0,7.0,67,0.00,,,0.02,Wunderground v.1.15,2013-05-10 19:06:00,
2013-05-10 15:35:00,66.8,57.5,29.83,East,98,1.0,1.0,72,0.00,,,0.02,Wunderground v.1.15,2013-05-10 19:35:00,
2013-05-10 15:46:00,66.9,57.2,29.83,East,98,0.0,6.0,71,0.00,,,0.02,Wunderground v.1.15,2013-05-10 19:46:00,
2013-05-10 15:56:00,67.3,56.8,29.83,East,98,0.0,6.0,69,0.00,,,0.02,Wunderground v.1.15,2013-05-10 19:56:00,
2013-05-10 16:36:00,67.1,58.2,29.83,East,98,0.0,3.0,73,0.00,,,0.02,Wunderground v.1.15,2013-05-10 20:36:00,
2013-05-10 16:46:00,67.6,58.2,29.84,East,98,0.0,3.0,72,0.00,,,0.02,Wunderground v.1.15,2013-05-10 20:46:00,
2013-05-10 16:56:00,67.9,57.8,29.84,NNE,26,0.0,3.0,70,0.00,,,0.02,Wunderground v.1.15,2013-05-10 20:56:00,
2013-05-10 17:35:00,66.3,57.8,29.84,East,80,0.0,3.0,74,0.00,,,0.02,Wunderground v.1.15,2013-05-10 21:35:00,
2013-05-10 17:46:00,65.3,58.6,29.83,East,80,0.0,3.0,79,0.00,,,0.03,Wunderground v.1.15,2013-05-10 21:46:00,
2013-05-10 17:56:00,64.2,58.9,29.83,East,80,0.0,3.0,83,0.04,,,0.03,Wunderground v.1.15,2013-05-10 21:56:00,
2013-05-10 18:35:00,63.9,60.6,29.83,East,80,0.0,1.0,89,0.00,,,0.04,Wunderground v.1.15,2013-05-10 22:35:00,
2013-05-10 18:46:00,63.5,60.5,29.83,East,80,0.0,1.0,90,0.00,,,0.04,Wunderground v.1.15,2013-05-10 22:46:00,
2013-05-10 18:56:00,63.4,61.0,29.83,East,80,0.0,1.0,92,0.00,,,0.04,Wunderground v.1.15,2013-05-10 22:56:00,
2013-05-10 19:05:00,62.9,60.8,29.83,East,80,0.0,2.0,93,0.00,,,0.04,Wunderground v.1.15,2013-05-10 23:05:00,
2013-05-10 19:16:00,62.9,60.8,29.83,East,80,0.0,2.0,93,0.00,,,0.04,Wunderground v.1.15,2013-05-10 23:16:00,
2013-05-10 19:26:00,62.4,60.3,29.83,East,80,0.0,2.0,93,0.00,,,0.04,Wunderground v.1.15,2013-05-10 23:26:00,
2013-05-10 19:36:00,62.3,60.6,29.84,East,80,0.0,2.0,94,0.00,,,0.04,Wunderground v.1.15,2013-05-10 23:36:00,
2013-05-10 20:06:00,61.5,59.8,29.84,East,80,0.0,3.0,94,0.00,,,0.04,Wunderground v.1.15,2013-05-11 00:06:00,
2013-05-10 20:16:00,61.3,59.6,29.84,East,80,0.0,3.0,94,0.00,,,0.04,Wunderground v.1.15,2013-05-11 00:16:00,
2013-05-10 21:06:00,60.5,58.2,29.84,East,80,0.0,2.0,92,0.00,,,0.04,Wunderground v.1.15,2013-05-11 01:06:00,
2013-05-10 21:16:00,60.2,58.2,29.84,East,80,0.0,2.0,93,0.00,,,0.04,Wunderground v.1.15,2013-05-11 01:16:00,
2013-05-10 21:46:00,59.8,58.7,29.83,East,80,0.0,1.0,96,0.00,,,0.04,Wunderground v.1.15,2013-05-11 01:46:00,
2013-05-10 21:56:00,59.6,58.5,29.83,East,80,0.0,1.0,96,0.00,,,0.04,Wunderground v.1.15,2013-05-11 01:56:00,
2013-05-10 22:05:00,59.5,58.4,29.84,East,80,0.0,3.0,96,0.00,,,0.04,Wunderground v.1.15,2013-05-11 02:05:00,
2013-05-10 22:16:00,59.3,57.9,29.83,East,80,0.0,3.0,95,0.00,,,0.04,Wunderground v.1.15,2013-05-11 02:16:00,
2013-05-10 22:26:00,58.9,57.5,29.83,ESE,117,0.0,3.0,95,0.00,,,0.04,Wunderground v.1.15,2013-05-11 02:26:00,
2013-05-10 23:06:00,58.7,55.2,29.82,ESE,113,0.0,3.0,88,0.00,,,0.04,Wunderground v.1.15,2013-05-11 03:06:00,
2013-05-10 23:16:00,58.7,54.5,29.82,ESE,113,0.0,3.0,86,0.00,,,0.04,Wunderground v.1.15,2013-05-11 03:16:00,
2013-05-10 23:26:00,58.4,54.2,29.82,ESE,113,0.0,3.0,86,0.00,,,0.04,Wunderground v.1.15,2013-05-11 03:26:00,